Zurück zum Katalog

COSMOS 2251 DEB

AktivLEO
NORAD 33940·DEBRIS·🇷🇺 Russia

Gestartet Jun 16, 1993 von Plesetsk Cosmodrome

Loading…

Nächste Überflüge (nächste 24 Stunden)

TLE

AktuellSource: Space-Track

Epoche: Sep 14, 2026, 13:24 UTC

1 33940U 93036EV  26257.55833395  .00002154  00000-0  44581-3 0  9990
2 33940  74.0412 337.2702 0012350 340.8051  81.4577 14.60877962926194

Verfolge COSMOS 2251 DEB in Echtzeit mit AllMySat

Download on the App Store